TimeCST,TemperatureF,Dew PointF,Humidity,Sea Level PressureIn,VisibilityMPH,Wind Direction,Wind SpeedMPH,Gust SpeedMPH,PrecipitationIn,Events,Conditions,WindDirDegrees,DateUTC
12:15 AM,42.8,35.6,76,30.30,10.0,NNW,8.1,-,N/A,,Overcast,330,2012-11-28 06:15:00
12:35 AM,42.8,33.8,70,30.30,10.0,North,8.1,-,N/A,,Overcast,10,2012-11-28 06:35:00
12:55 AM,42.8,35.6,76,30.30,10.0,NNE,8.1,-,N/A,,Overcast,20,2012-11-28 06:55:00
1:15 AM,42.8,33.8,70,30.31,10.0,NNW,8.1,-,N/A,,Overcast,340,2012-11-28 07:15:00
1:35 AM,42.8,33.8,70,30.31,10.0,North,8.1,-,N/A,,Overcast,350,2012-11-28 07:35:00
1:55 AM,41.0,33.8,76,30.32,10.0,NNW,8.1,-,N/A,,Overcast,340,2012-11-28 07:55:00
2:15 AM,41.0,33.8,76,30.33,10.0,North,9.2,-,N/A,,Overcast,10,2012-11-28 08:15:00
2:35 AM,41.0,33.8,76,30.33,10.0,North,5.8,-,N/A,,Overcast,10,2012-11-28 08:35:00
2:55 AM,39.2,32.0,75,30.33,10.0,NNE,8.1,-,N/A,,Overcast,20,2012-11-28 08:55:00
3:15 AM,39.2,32.0,75,30.34,10.0,North,3.5,-,N/A,,Overcast,350,2012-11-28 09:15:00
3:35 AM,39.2,32.0,75,30.34,10.0,North,9.2,-,N/A,,Overcast,360,2012-11-28 09:35:00
3:55 AM,39.2,33.8,81,30.34,10.0,NNE,10.4,-,N/A,,Overcast,20,2012-11-28 09:55:00
4:15 AM,39.2,32.0,75,30.35,10.0,NNW,8.1,-,N/A,,Overcast,330,2012-11-28 10:15:00
4:35 AM,39.2,32.0,75,30.35,10.0,NNE,9.2,-,N/A,,Overcast,20,2012-11-28 10:35:00
4:55 AM,39.2,32.0,75,30.36,10.0,NNW,6.9,-,N/A,,Overcast,330,2012-11-28 10:55:00
5:15 AM,39.2,30.2,70,30.37,10.0,North,5.8,-,N/A,,Overcast,350,2012-11-28 11:15:00
5:35 AM,37.4,30.2,75,30.37,10.0,North,6.9,-,N/A,,Overcast,350,2012-11-28 11:35:00
5:55 AM,37.4,30.2,75,30.37,10.0,North,4.6,-,N/A,,Overcast,360,2012-11-28 11:55:00
6:15 AM,37.4,30.2,75,30.38,10.0,North,5.8,-,N/A,,Mostly Cloudy,350,2012-11-28 12:15:00
6:35 AM,35.6,30.2,81,30.39,10.0,North,4.6,-,N/A,,Mostly Cloudy,10,2012-11-28 12:35:00
6:55 AM,35.6,30.2,81,30.39,10.0,North,3.5,-,N/A,,Partly Cloudy,360,2012-11-28 12:55:00
7:15 AM,35.6,30.2,81,30.40,10.0,North,3.5,-,N/A,,Clear,360,2012-11-28 13:15:00
7:35 AM,37.4,30.2,75,30.41,10.0,North,6.9,-,N/A,,Clear,10,2012-11-28 13:35:00
7:55 AM,37.4,30.2,75,30.41,10.0,NNE,6.9,-,N/A,,Clear,20,2012-11-28 13:55:00
8:15 AM,39.2,30.2,70,30.41,10.0,NNE,11.5,-,N/A,,Clear,20,2012-11-28 14:15:00
8:35 AM,39.2,32.0,75,30.42,10.0,North,10.4,-,N/A,,Clear,10,2012-11-28 14:35:00
8:55 AM,41.0,30.2,65,30.43,10.0,North,9.2,-,N/A,,Clear,360,2012-11-28 14:55:00
9:15 AM,42.8,30.2,61,30.43,10.0,North,6.9,-,N/A,,Clear,350,2012-11-28 15:15:00
9:35 AM,42.8,32.0,66,30.44,10.0,North,6.9,-,N/A,,Clear,350,2012-11-28 15:35:00
9:55 AM,44.6,30.2,57,30.44,10.0,North,8.1,-,N/A,,Clear,350,2012-11-28 15:55:00
10:15 AM,46.4,30.2,53,30.44,10.0,NNE,8.1,-,N/A,,Clear,30,2012-11-28 16:15:00
10:35 AM,46.4,30.2,53,30.43,10.0,Calm,Calm,-,N/A,,Clear,0,2012-11-28 16:35:00
10:55 AM,48.2,30.2,50,30.43,10.0,North,3.5,-,N/A,,Clear,10,2012-11-28 16:55:00
11:15 AM,50.0,28.4,43,30.42,10.0,East,6.9,-,N/A,,Clear,80,2012-11-28 17:15:00
11:35 AM,51.8,30.2,44,30.42,10.0,ENE,5.8,-,N/A,,Clear,60,2012-11-28 17:35:00
11:55 AM,51.8,28.4,41,30.41,10.0,ENE,4.6,-,N/A,,Clear,70,2012-11-28 17:55:00
12:35 PM,53.6,26.6,35,30.39,10.0,NNE,5.8,-,N/A,,Clear,30,2012-11-28 18:35:00
12:55 PM,55.4,26.6,33,30.38,10.0,NE,10.4,-,N/A,,Clear,50,2012-11-28 18:55:00
1:15 PM,55.4,26.6,33,30.37,10.0,NE,4.6,-,N/A,,Clear,40,2012-11-28 19:15:00
1:35 PM,55.4,26.6,33,30.36,10.0,North,5.8,-,N/A,,Clear,350,2012-11-28 19:35:00
1:55 PM,57.2,26.6,31,30.36,10.0,North,4.6,-,N/A,,Clear,360,2012-11-28 19:55:00
2:15 PM,55.4,26.6,33,30.35,10.0,NNW,3.5,-,N/A,,Clear,340,2012-11-28 20:15:00
2:35 PM,55.4,26.6,33,30.35,10.0,North,4.6,-,N/A,,Clear,360,2012-11-28 20:35:00
2:55 PM,55.4,26.6,33,30.35,10.0,NNW,5.8,-,N/A,,Clear,340,2012-11-28 20:55:00
3:15 PM,55.4,28.4,36,30.35,10.0,NNW,6.9,-,N/A,,Clear,340,2012-11-28 21:15:00
3:35 PM,55.4,26.6,33,30.35,10.0,Calm,Calm,-,N/A,,Clear,0,2012-11-28 21:35:00
3:55 PM,53.6,26.6,35,30.35,10.0,NNW,5.8,-,N/A,,Clear,330,2012-11-28 21:55:00
4:15 PM,51.8,26.6,38,30.35,10.0,NW,4.6,-,N/A,,Clear,320,2012-11-28 22:15:00
4:35 PM,48.2,28.4,46,30.35,10.0,WNW,4.6,-,N/A,,Clear,300,2012-11-28 22:35:00
4:55 PM,48.2,26.6,43,30.35,10.0,NW,5.8,-,N/A,,Clear,320,2012-11-28 22:55:00
5:15 PM,48.2,24.8,40,30.36,10.0,NW,4.6,-,N/A,,Clear,310,2012-11-28 23:15:00
5:35 PM,42.8,28.4,57,30.36,10.0,Calm,Calm,-,N/A,,Clear,0,2012-11-28 23:35:00
5:55 PM,39.2,28.4,65,30.37,10.0,Calm,Calm,-,N/A,,Clear,0,2012-11-28 23:55:00
6:15 PM,41.0,28.4,61,30.37,10.0,Calm,Calm,-,N/A,,Clear,0,2012-11-29 00:15:00
6:35 PM,39.2,28.4,65,30.38,10.0,Calm,Calm,-,N/A,,Clear,0,2012-11-29 00:35:00
6:55 PM,37.4,28.4,70,30.38,10.0,Calm,Calm,-,N/A,,Clear,0,2012-11-29 00:55:00
7:15 PM,37.4,28.4,70,30.38,10.0,Calm,Calm,-,N/A,,Clear,0,2012-11-29 01:15:00
7:35 PM,35.6,28.4,75,30.38,10.0,Calm,Calm,-,N/A,,Clear,0,2012-11-29 01:35:00
7:55 PM,33.8,28.4,81,30.38,10.0,Calm,Calm,-,N/A,,Clear,0,2012-11-29 01:55:00
8:15 PM,33.8,26.6,75,30.38,10.0,Calm,Calm,-,N/A,,Clear,0,2012-11-29 02:15:00
8:35 PM,33.8,26.6,75,30.38,10.0,Calm,Calm,-,N/A,,Clear,0,2012-11-29 02:35:00
8:55 PM,33.8,26.6,75,30.38,10.0,Calm,Calm,-,N/A,,Clear,0,2012-11-29 02:55:00
9:15 PM,33.8,28.4,81,30.38,10.0,Calm,Calm,-,N/A,,Clear,0,2012-11-29 03:15:00
9:35 PM,33.8,26.6,75,30.39,10.0,Calm,Calm,-,N/A,,Clear,0,2012-11-29 03:35:00
9:55 PM,32.0,26.6,80,30.38,10.0,Calm,Calm,-,N/A,,Clear,0,2012-11-29 03:55:00
10:15 PM,32.0,26.6,80,30.38,10.0,Calm,Calm,-,N/A,,Clear,0,2012-11-29 04:15:00
10:35 PM,32.0,26.6,80,30.38,10.0,Calm,Calm,-,N/A,,Clear,0,2012-11-29 04:35:00
10:55 PM,33.8,28.4,81,30.38,10.0,Calm,Calm,-,N/A,,Clear,0,2012-11-29 04:55:00
11:15 PM,32.0,26.6,80,30.38,10.0,Calm,Calm,-,N/A,,Clear,0,2012-11-29 05:15:00
11:35 PM,30.2,26.6,86,30.38,10.0,Calm,Calm,-,N/A,,Clear,0,2012-11-29 05:35:00
11:55 PM,30.2,26.6,86,30.37,10.0,Calm,Calm,-,N/A,,Clear,0,2012-11-29 05:55:00